Location: *
(52.2090°N, 4.1550°W)
Time: 06:42:55
(UTC+00:00)

Cosmos 2242 Rocket - Pass Details

Date: 19 July 2019
Orbit: 619 x 651 km, 82.5° (Epoch: 24 August)

Event Time Altitude Azimuth Distance (km) Brightness Sun altitude
Rises 22:35:16 0° 353° (N) 2,959 8.6 -13.3°
Reaches altitude 10° 22:37:35 10° 359° (N) 2,050 7.3 -13.5°
Maximum altitude 22:41:59 46° 73° (ENE) 871 4.2 -13.8°
Enters shadow 22:44:45 21° 138° (SE) 1,461 4.9 -13.9°
